This demonstration page uses our WeatherBlox Daily Observations layout. Learn more.

Left ArrowRight Arrow

Hourly Observations for May 3, 2020

Temp ( °F °C ) Dew Point ( °F °C ) Humidity (%) Winds ( mph kmh ) Pressure ( in mb ) Visibility ( mi km ) Precip ( " mm )
12:53 am 00:53 Mostly Clear 51 10.6 41 5 69 69 Calm 30.13 1020 10 16 0.00 0.00
1:53 am 01:53 Clear 52 11.1 38 3.3 59 59 ENE 3 6 30.12 1020 10 16 0.00 0.00
2:53 am 02:53 Clear 48 8.9 40 4.4 74 74 NW 3 6 30.12 1020 10 16 0.00 0.00
3:53 am 03:53 Clear 50 10 40 4.4 68 68 NNW 6 9 30.13 1020 10 16 0.00 0.00
4:53 am 04:53 Clear 49 9.4 38 3.3 66 66 NNW 5 7 30.14 1021 10 16 0.00 0.00
5:53 am 05:53 Clear 46 7.8 39 3.9 77 77 N 3 6 30.15 1021 10 16 0.00 0.00
6:53 am 06:53 Sunny 51 10.6 37 2.8 59 59 NNW 6 9 30.16 1022 10 16 0.00 0.00
7:53 am 07:53 Sunny 54 12.2 37 2.8 53 53 NNW 7 11 30.16 1022 10 16 0.00 0.00
8:53 am 08:53 Sunny 58 14.4 38 3.3 48 48 N 10 17 30.16 1021 10 16 0.00 0.00
9:53 am 09:53 Sunny 62 16.7 38 3.3 41 41 NNW 10 17 30.15 1021 10 16 0.00 0.00
10:53 am 10:53 Sunny 66 18.9 42 5.6 42 42 NNE 8 13 30.14 1021 10 16 0.00 0.00
11:53 am 11:53 Sunny 68 20 39 3.9 35 35 NNW 7 11 30.13 1020 10 16 0.00 0.00
12:53 pm 12:53 Sunny 71 21.7 35 1.7 27 27 NE 8 13 30.11 1020 10 16 0.00 0.00
1:53 pm 13:53 Sunny 72 22.2 32 0 23 23 VRB 6 9 30.09 1019 10 16 0.00 0.00
2:53 pm 14:53 Sunny 74 23.3 34 1.1 23 23 VRB 6 9 30.07 1018 10 16 0.00 0.00
3:53 pm 15:53 Sunny 75 23.9 33 0.6 22 22 NE 6 9 30.05 1018 10 16 0.00 0.00
4:53 pm 16:53 Sunny 75 23.9 31 -0.6 20 20 VRB 3 6 30.04 1017 10 16 0.00 0.00
5:53 pm 17:53 Sunny 75 23.9 29 -1.7 18 18 WSW 7 11 30.04 1017 10 16 0.00 0.00
6:53 pm 18:53 Sunny 74 23.3 31 -0.6 20 20 SSE 7 11 30.04 1017 10 16 0.00 0.00
7:53 pm 19:53 Sunny 71 21.7 37 2.8 29 29 Calm 30.06 1018 10 16 0.00 0.00
8:53 pm 20:53 Clear 67 19.4 34 1.1 30 30 NNW 5 7 30.07 1018 10 16 0.00 0.00
9:53 pm 21:53 Clear 66 18.9 32 0 28 28 NW 6 9 30.09 1019 10 16 0.00 0.00
10:53 pm 22:53 Clear 59 15 39 3.9 48 48 ENE 3 6 30.11 1020 10 16 0.00 0.00
11:53 pm 23:53 Clear 54 12.2 41 5 62 62 Calm 30.11 1020 10 16 0.00 0.00

Powered by AerisWeather